TimePST,TemperatureF,Dew PointF,Humidity,Sea Level PressureIn,VisibilityMPH,Wind Direction,Wind SpeedMPH,Gust SpeedMPH,PrecipitationIn,Events,Conditions,WindDirDegrees,DateUTC
12:54 AM,45.0,39.0,80,30.07,-9999.0,NNW,11.5,-,N/A,,Clear,340,2013-01-03 08:54:00
1:54 AM,50.0,43.0,77,30.08,-9999.0,NNE,8.1,-,N/A,,Clear,20,2013-01-03 09:54:00
2:54 AM,53.1,46.0,77,30.07,-9999.0,NE,8.1,-,N/A,,Clear,50,2013-01-03 10:54:00
3:54 AM,54.0,46.9,77,30.08,-9999.0,NE,4.6,-,N/A,,Clear,40,2013-01-03 11:54:00
4:54 AM,55.9,48.9,77,30.06,-9999.0,NNE,8.1,18.4,N/A,,Clear,30,2013-01-03 12:54:00
5:54 AM,55.0,48.9,80,30.09,7.0,NNE,5.8,-,N/A,,Partly Cloudy,30,2013-01-03 13:54:00
6:54 AM,55.9,48.9,77,30.11,7.0,NNE,8.1,-,N/A,,Partly Cloudy,30,2013-01-03 14:54:00
7:54 AM,61.0,19.0,20,30.12,7.0,ENE,23.0,36.8,N/A,,Partly Cloudy,60,2013-01-03 15:54:00
8:54 AM,63.0,19.4,19,30.12,7.0,NE,24.2,33.4,N/A,,Partly Cloudy,50,2013-01-03 16:54:00
9:54 AM,64.9,19.8,18,30.14,7.0,NE,24.2,36.8,N/A,,Clear,50,2013-01-03 17:54:00
10:54 AM,68.0,21.9,17,30.14,7.0,ENE,21.9,31.1,N/A,,Clear,60,2013-01-03 18:54:00
11:54 AM,69.1,21.2,16,30.13,7.0,ENE,13.8,-,N/A,,Clear,60,2013-01-03 19:54:00
12:54 PM,70.0,20.7,15,30.11,7.0,ENE,18.4,29.9,N/A,,Clear,60,2013-01-03 20:54:00
1:54 PM,70.0,19.2,15,30.10,7.0,NE,15.0,28.8,N/A,,Partly Cloudy,50,2013-01-03 21:54:00
2:54 PM,70.0,44.6,40,30.11,7.0,NE,12.7,24.2,N/A,,Partly Cloudy,50,2013-01-03 22:54:00
3:54 PM,69.1,21.6,17,30.12,7.0,North,10.4,16.1,N/A,,Partly Cloudy,10,2013-01-03 23:54:00
4:54 PM,60.1,33.3,36,30.13,7.0,NW,5.8,-,N/A,,Partly Cloudy,320,2013-01-04 00:54:00
5:54 PM,56.8,34.9,44,30.15,7.0,NNW,8.1,-,N/A,,Partly Cloudy,330,2013-01-04 01:54:00
6:54 PM,57.6,32.2,38,30.16,7.0,North,4.6,-,N/A,,Clear,360,2013-01-04 02:54:00
7:54 PM,55.6,37.9,52,30.17,7.0,North,4.6,-,N/A,,Clear,350,2013-01-04 03:54:00
8:54 PM,54.7,34.0,46,30.17,7.0,Variable,6.9,-,N/A,,Clear,0,2013-01-04 04:54:00
9:54 PM,51.4,35.1,54,30.18,7.0,NNW,5.8,-,N/A,,Clear,330,2013-01-04 05:54:00
10:54 PM,51.6,38.1,60,30.18,7.0,North,4.6,-,N/A,,Clear,360,2013-01-04 06:54:00
11:54 PM,45.0,39.9,82,30.18,-9999.0,NW,9.2,-,N/A,,Clear,320,2013-01-04 07:54:00